Terug naar catalogus

ONEWEB-0507

ActiefCommunicatiePO
NORAD 54125·PAYLOAD·🇬🇧 United Kingdom

Gelanceerd Oct 22, 2022 vanaf Satish Dhawan Space Centre

Loading…

Volgende Passages (komende 24 uur)

TLE

VersSource: CelesTrak SupGP

Epoch: Sep 14, 2026, 06:59 UTC

1 54125C 22138N   26257.29111528 -.00003213  00000+0 -80345-2 0  2573
2 54125  87.9107 287.2237 0001998  88.0227 320.5493 13.19729791    12

Volg ONEWEB-0507 in realtime met AllMySat

Download on the App Store